| time (UTC) | temp F | wind direction | speed MPH | gust MPH | rain 1hr in | rain 24hr in | rain mn in | humidity % | barometer mb |
| 20260504010518 | 71 | 238 | 2.0 | 4.0 | 0.00 | 0.00 | 0.00 | 44 | 1011.4 |
| 20260504005536 | 72 | 250 | 2.0 | 5.0 | 0.00 | 0.00 | 0.00 | 43 | 1011.3 |
| 20260504004534 | 73 | 238 | 2.0 | 5.0 | 0.00 | 0.00 | 0.00 | 42 | 1011.3 |
| 20260504003533 | 73 | 253 | 2.0 | 5.0 | 0.00 | 0.00 | 0.00 | 40 | 1011.4 |
| 20260504002550 | 74 | 238 | 3.0 | 5.0 | 0.00 | 0.00 | 0.00 | 38 | 1011.5 |
| 20260504001529 | 75 | 249 | 4.0 | 11.0 | 0.00 | 0.00 | 0.00 | 37 | 1011.5 |
| 20260504000547 | 75 | 246 | 3.0 | 7.0 | 0.00 | 0.00 | 0.00 | 36 | 1011.6 |
| 20260503235525 | 75 | 241 | 4.0 | 9.0 | 0.00 | 0.00 | 0.00 | 34 | 1011.6 |
| 20260503234523 | 76 | 243 | 3.0 | 6.0 | 0.00 | 0.00 | 0.00 | 34 | 1011.7 |
| 20260503233521 | 77 | 241 | 5.0 | 10.0 | 0.00 | 0.00 | 0.00 | 33 | 1011.7 |
| 20260503232519 | 77 | 240 | 6.0 | 10.0 | 0.00 | 0.00 | 0.00 | 33 | 1011.8 |
| 20260503231517 | 77 | 243 | 5.0 | 9.0 | 0.00 | 0.00 | 0.00 | 34 | 1011.7 |
| 20260503230516 | 77 | 251 | 4.0 | 7.0 | 0.00 | 0.00 | 0.00 | 33 | 1011.7 |
| 20260503225534 | 78 | 248 | 3.0 | 6.0 | 0.00 | 0.00 | 0.00 | 34 | 1011.7 |
| 20260503224532 | 78 | 237 | 6.0 | 11.0 | 0.00 | 0.00 | 0.00 | 31 | 1011.8 |
| 20260503223530 | 79 | 248 | 5.0 | 11.0 | 0.00 | 0.00 | 0.00 | 31 | 1011.8 |
| 20260503222528 | 80 | 249 | 5.0 | 11.0 | 0.00 | 0.00 | 0.00 | 31 | 1012.0 |
| 20260503221647 | 80 | 256 | 5.0 | 9.0 | 0.00 | 0.00 | 0.00 | 31 | 1012.1 |
| 20260503220525 | 80 | 246 | 7.0 | 13.0 | 0.00 | 0.00 | 0.00 | 31 | 1012.3 |
| 20260503215523 | 81 | 239 | 7.0 | 13.0 | 0.00 | 0.00 | 0.00 | 31 | 1012.2 |
| 20260503214521 | 80 | 260 | 3.0 | 10.0 | 0.00 | 0.00 | 0.00 | 32 | 1012.3 |
| 20260503213519 | 80 | 249 | 7.0 | 15.0 | 0.00 | 0.00 | 0.00 | 30 | 1012.5 |
| 20260503212518 | 81 | 239 | 7.0 | 14.0 | 0.00 | 0.00 | 0.00 | 31 | 1012.6 |
| 20260503211515 | 80 | 231 | 6.0 | 13.0 | 0.00 | 0.00 | 0.00 | 30 | 1012.7 |
| 20260503210533 | 80 | 237 | 8.0 | 15.0 | 0.00 | 0.00 | 0.00 | 32 | 1012.8 |
| 20260503205532 | 80 | 251 | 5.0 | 10.0 | 0.00 | 0.00 | 0.00 | 33 | 1013.0 |
| 20260503204530 | 80 | 245 | 6.0 | 15.0 | 0.00 | 0.00 | 0.00 | 32 | 1013.3 |
| 20260503203528 | 80 | 240 | 5.0 | 11.0 | 0.00 | 0.00 | 0.00 | 36 | 1013.4 |
| 20260503202526 | 79 | 250 | 7.0 | 12.0 | 0.00 | 0.00 | 0.00 | 36 | 1013.4 |
| 20260503201524 | 79 | 251 | 7.0 | 13.0 | 0.00 | 0.00 | 0.00 | 34 | 1013.7 |
| 20260503200542 | 80 | 249 | 5.0 | 9.0 | 0.00 | 0.00 | 0.00 | 36 | 1013.8 |
| 20260503195520 | 79 | 251 | 6.0 | 11.0 | 0.00 | 0.00 | 0.00 | 36 | 1013.9 |
| 20260503194538 | 79 | 242 | 5.0 | 13.0 | 0.00 | 0.00 | 0.00 | 37 | 1014.2 |
| 20260503193537 | 78 | 241 | 7.0 | 12.0 | 0.00 | 0.00 | 0.00 | 37 | 1014.3 |
| 20260503192535 | 78 | 246 | 7.0 | 14.0 | 0.00 | 0.00 | 0.00 | 37 | 1014.6 |
| 20260503191534 | 78 | 247 | 5.0 | 10.0 | 0.00 | 0.00 | 0.00 | 38 | 1014.6 |
| 20260503190531 | 77 | 241 | 6.0 | 13.0 | 0.00 | 0.00 | 0.00 | 41 | 1014.8 |
| 20260503185529 | 76 | 243 | 7.0 | 12.0 | 0.00 | 0.00 | 0.00 | 40 | 1014.9 |
| 20260503184527 | 76 | 243 | 6.0 | 11.0 | 0.00 | 0.00 | 0.00 | 42 | 1015.1 |
| 20260503183525 | 76 | 244 | 5.0 | 11.0 | 0.00 | 0.00 | 0.00 | 42 | 1015.3 |
| 20260503182524 | 75 | 246 | 6.0 | 16.0 | 0.00 | 0.00 | 0.00 | 43 | 1015.5 |
| 20260503181522 | 75 | 231 | 5.0 | 12.0 | 0.00 | 0.00 | 0.00 | 45 | 1015.7 |
| 20260503180520 | 75 | 247 | 3.0 | 8.0 | 0.00 | 0.00 | 0.00 | 46 | 1016.0 |
| 20260503175538 | 74 | 254 | 5.0 | 9.0 | 0.00 | 0.00 | 0.00 | 45 | 1016.2 |
| 20260503174537 | 73 | 254 | 5.0 | 11.0 | 0.00 | 0.00 | 0.00 | 46 | 1016.3 |
| 20260503173534 | 72 | 249 | 6.0 | 9.0 | 0.00 | 0.00 | 0.00 | 47 | 1016.4 |
| 20260503172533 | 71 | 264 | 5.0 | 10.0 | 0.00 | 0.00 | 0.00 | 46 | 1016.7 |
| 20260503171531 | 71 | 240 | 6.0 | 9.0 | 0.00 | 0.00 | 0.00 | 47 | 1016.9 |
| 20260503170529 | 70 | 258 | 5.0 | 10.0 | 0.00 | 0.00 | 0.00 | 47 | 1017.0 |
| 20260503150527 | 63 | 250 | 6.0 | 9.0 | 0.00 | 0.00 | 0.00 | 49 | 1017.9 |
| 20260503130524 | 50 | 210 | 2.0 | 5.0 | 0.00 | 0.00 | 0.00 | 74 | 1018.5 |
| 20260503110522 | 38 | 120 | 1.0 | 3.0 | 0.00 | 0.00 | 0.00 | 93 | 1018.5 |
| 20260503081531 | 40 | 102 | 2.0 | 2.0 | 0.00 | 0.00 | 0.00 | 91 | 1019.1 |
| 20260503080548 | 40 | 89 | 1.0 | 2.0 | 0.00 | 0.00 | 0.00 | 91 | 1019.0 |
| 20260503072521 | 42 | 94 | 1.0 | 2.0 | 0.00 | 0.00 | 0.00 | 89 | 1019.3 |
| 20260503071519 | 42 | 102 | 2.0 | 3.0 | 0.00 | 0.00 | 0.00 | 88 | 1019.3 |
| 20260503070518 | 42 | 107 | 2.0 | 3.0 | 0.00 | 0.00 | 0.00 | 88 | 1019.5 |
| 20260503054522 | 43 | 88 | 2.0 | 2.0 | 0.00 | 0.00 | 0.00 | 86 | 1020.0 |
| 20260503053541 | 43 | 101 | 2.0 | 3.0 | 0.00 | 0.00 | 0.00 | 86 | 1019.9 |
| 20260503052519 | 43 | 92 | 1.0 | 2.0 | 0.00 | 0.00 | 0.00 | 86 | 1020.0 |
| 20260503051517 | 44 | 82 | 1.0 | 3.0 | 0.00 | 0.00 | 0.00 | 84 | 1019.8 |
| 20260503050535 | 44 | 100 | 2.0 | 3.0 | 0.00 | 0.00 | 0.00 | 83 | 1019.8 |
| 20260503045533 | 44 | 80 | 1.0 | 2.0 | 0.00 | 0.00 | 0.00 | 81 | 1019.8 |
| 20260503044532 | 45 | 80 | 1.0 | 2.0 | 0.00 | 0.00 | 0.00 | 78 | 1019.8 |
| 20260503043530 | 45 | 85 | 1.0 | 2.0 | 0.00 | 0.00 | 0.00 | 75 | 1019.7 |
| 20260503042528 | 46 | 84 | 1.0 | 2.0 | 0.00 | 0.00 | 0.00 | 73 | 1019.7 |
| 20260503041526 | 46 | 90 | 2.0 | 2.0 | 0.00 | 0.00 | 0.00 | 71 | 1019.8 |
| 20260503040524 | 47 | 77 | 1.0 | 2.0 | 0.00 | 0.00 | 0.00 | 71 | 1019.8 |
| 20260503035522 | 47 | 90 | 2.0 | 3.0 | 0.00 | 0.00 | 0.00 | 69 | 1019.8 |
| 20260503034521 | 48 | 76 | 1.0 | 2.0 | 0.00 | 0.00 | 0.00 | 66 | 1019.8 |
| 20260503033519 | 48 | 72 | 1.0 | 2.0 | 0.00 | 0.00 | 0.00 | 65 | 1019.8 |
| 20260503032537 | 49 | 85 | 1.0 | 3.0 | 0.00 | 0.00 | 0.00 | 64 | 1019.9 |
| 20260503031535 | 49 | 96 | 2.0 | 3.0 | 0.00 | 0.00 | 0.00 | 61 | 1019.8 |
| 20260503030533 | 50 | 72 | 2.0 | 2.0 | 0.00 | 0.00 | 0.00 | 60 | 1019.7 |
| 20260503025531 | 51 | 76 | 1.0 | 2.0 | 0.00 | 0.00 | 0.00 | 58 | 1019.5 |
| 20260503024550 | 51 | 59 | 2.0 | 2.0 | 0.00 | 0.00 | 0.00 | 57 | 1019.5 |
| 20260503023527 | 52 | 74 | 2.0 | 3.0 | 0.00 | 0.00 | 0.00 | 55 | 1019.5 |
| 20260503022526 | 52 | 75 | 2.0 | 3.0 | 0.00 | 0.00 | 0.00 | 54 | 1019.5 |
| 20260503021524 | 53 | 67 | 2.0 | 2.0 | 0.00 | 0.00 | 0.00 | 50 | 1019.3 |
| 20260503020522 | 54 | 65 | 1.0 | 3.0 | 0.00 | 0.00 | 0.00 | 49 | 1019.1 |
| 20260503015520 | 55 | 58 | 2.0 | 4.0 | 0.00 | 0.00 | 0.00 | 47 | 1019.2 |
| 20260503014538 | 56 | 43 | 2.0 | 4.0 | 0.00 | 0.00 | 0.00 | 44 | 1019.1 |
| 20260503013517 | 56 | 47 | 2.0 | 4.0 | 0.00 | 0.00 | 0.00 | 44 | 1019.2 |
| 20260503012534 | 56 | 61 | 2.0 | 4.0 | 0.00 | 0.00 | 0.00 | 43 | 1019.0 |
| 20260503011533 | 57 | 45 | 2.0 | 5.0 | 0.00 | 0.00 | 0.00 | 42 | 1019.0 |